| time (UTC) | temp F | wind direction | speed knots | gust knots | rain 1hr in | rain 24hr in | rain mn in | humidity % | barometer mb |
| 20260508141957 | 47 | 302 | 1.7 | 5.2 | 0.00 | 0.00 | 0.00 | 96 | 1002.7 |
| 20260508140957 | 45 | 296 | 2.6 | 5.2 | 0.00 | 0.00 | 0.00 | 95 | 1002.8 |
| 20260508135948 | 45 | 281 | 2.6 | 5.2 | 0.00 | 0.00 | 0.00 | 95 | 1002.8 |
| 20260508134941 | 49 | 323 | 2.6 | 5.2 | 0.00 | 0.00 | 0.00 | 95 | 1002.9 |
| 20260508133953 | 49 | 345 | 1.7 | 4.3 | 0.00 | 0.00 | 0.00 | 95 | 1002.8 |
| 20260508132953 | 50 | 356 | 2.6 | 4.3 | 0.00 | 0.00 | 0.00 | 95 | 1002.8 |
| 20260508131956 | 51 | 5 | 1.7 | 3.5 | 0.00 | 0.00 | 0.00 | 95 | 1002.9 |
| 20260508130941 | 51 | 315 | 0.0 | 2.6 | 0.00 | 0.00 | 0.00 | 96 | 1002.8 |
| 20260508125951 | 49 | 319 | 0.9 | 2.6 | 0.00 | 0.00 | 0.00 | 96 | 1002.7 |
| 20260508124947 | 46 | 292 | 0.9 | 2.6 | 0.00 | 0.00 | 0.00 | 96 | 1002.6 |
| 20260508123942 | 44 | 238 | 0.9 | 7.8 | 0.00 | 0.00 | 0.00 | 96 | 1002.7 |
| 20260508122949 | 43 | 300 | 5.2 | 7.0 | 0.00 | 0.00 | 0.00 | 96 | 1002.7 |
| 20260508121954 | 44 | 221 | 1.7 | 3.5 | 0.00 | 0.00 | 0.00 | 96 | 1002.8 |
| 20260508120935 | 44 | 244 | 2.6 | 4.3 | 0.00 | 0.00 | 0.00 | 96 | 1002.9 |
| 20260508115950 | 43 | 278 | 1.7 | 2.6 | 0.00 | 0.00 | 0.00 | 96 | 1002.9 |
| 20260508115001 | 43 | 231 | 0.9 | 2.6 | 0.00 | 0.00 | 0.00 | 96 | 1002.9 |
| 20260508113948 | 44 | 231 | 1.7 | 2.6 | 0.00 | 0.00 | 0.00 | 96 | 1002.7 |
| 20260508112959 | 44 | 298 | 0.9 | 2.6 | 0.00 | 0.00 | 0.00 | 96 | 1002.6 |
| 20260508112001 | 44 | 300 | 1.7 | 3.5 | 0.00 | 0.00 | 0.00 | 96 | 1002.6 |
| 20260508110947 | 46 | 338 | 2.6 | 3.5 | 0.00 | 0.00 | 0.00 | 96 | 1002.5 |
| 20260508105959 | 47 | 353 | 2.6 | 3.5 | 0.00 | 0.00 | 0.00 | 97 | 1002.6 |
| 20260508104950 | 46 | 350 | 0.0 | 1.7 | 0.00 | 0.00 | 0.00 | 97 | 1002.5 |
| 20260508103935 | 44 | 318 | 0.0 | 0.9 | 0.00 | 0.00 | 0.00 | 96 | 1002.5 |
| 20260508102955 | 43 | 318 | 0.0 | 2.6 | 0.00 | 0.00 | 0.00 | 97 | 1002.8 |
| 20260508101949 | 42 | 317 | 0.9 | 3.5 | 0.00 | 0.00 | 0.00 | 97 | 1002.8 |
| 20260508100957 | 42 | 302 | 2.6 | 3.5 | 0.00 | 0.00 | 0.00 | 97 | 1002.7 |
| 20260508095955 | 42 | 282 | 2.6 | 3.5 | 0.00 | 0.00 | 0.00 | 97 | 1002.9 |
| 20260508095427 | 43 | 283 | 2.6 | 4.3 | 0.00 | 0.00 | 0.00 | 97 | 1002.8 |
| 20260508094923 | 42 | 280 | 1.7 | 6.1 | 0.00 | 0.00 | 0.00 | 97 | 1002.6 |
| 20260508093946 | 43 | 270 | 2.6 | 5.2 | 0.00 | 0.00 | 0.00 | 96 | 1002.7 |
| 20260508092950 | 43 | 241 | 1.7 | 3.5 | 0.00 | 0.00 | 0.00 | 96 | 1002.6 |
| 20260508091939 | 44 | 256 | 1.7 | 2.6 | 0.00 | 0.00 | 0.00 | 97 | 1002.5 |
| 20260508090954 | 44 | 355 | 0.9 | 2.6 | 0.00 | 0.00 | 0.00 | 96 | 1002.3 |
| 20260508085954 | 44 | 52 | 0.0 | 1.7 | 0.00 | 0.00 | 0.00 | 96 | 1002.0 |
| 20260508084927 | 0 | 0.0 | 0.0 | 0.00 | 0.00 | 0.00 | 1002.0 | ||
| 20260508083936 | 0 | 0.0 | 0.0 | 0.00 | 0.00 | 0.00 | 1002.3 | ||
| 20260508083428 | 0 | 0.0 | 0.0 | 0.00 | 0.00 | 0.00 | 1002.2 | ||
| 20260508082442 | 0 | 0.0 | 0.0 | 0.00 | 0.00 | 0.00 | 1002.2 | ||
| 20260508081932 | 0 | 0.0 | 0.0 | 0.00 | 0.00 | 0.00 | 1002.2 | ||
| 20260508081429 | 0 | 0.0 | 0.0 | 0.00 | 0.00 | 0.00 | 1002.3 | ||
| 20260508080926 | 0 | 0.0 | 0.0 | 0.00 | 0.00 | 0.00 | 1002.3 | ||
| 20260508075931 | 0 | 0.0 | 0.0 | 0.00 | 0.00 | 0.00 | 1002.2 | ||
| 20260508074952 | 0 | 0.0 | 0.0 | 0.00 | 0.00 | 0.00 | 1001.9 | ||
| 20260508073440 | 0 | 0.0 | 0.0 | 0.00 | 0.00 | 0.00 | 1002.4 | ||
| 20260508072936 | 45 | 346 | 0.0 | 2.6 | 0.00 | 0.00 | 0.00 | 96 | 1002.5 |
| 20260508072420 | 45 | 346 | 0.0 | 2.6 | 0.00 | 0.00 | 0.00 | 96 | 1002.3 |
| 20260508071440 | 45 | 345 | 0.9 | 2.6 | 0.00 | 0.00 | 0.00 | 96 | 1002.2 |
| 20260508070932 | 45 | 342 | 1.7 | 2.6 | 0.00 | 0.00 | 0.00 | 96 | 1002.2 |
| 20260508065940 | 45 | 341 | 0.9 | 1.7 | 0.00 | 0.00 | 0.00 | 96 | 1002.1 |
| 20260508064431 | 45 | 341 | 0.9 | 6.1 | 0.00 | 0.00 | 0.00 | 96 | 1002.4 |
| 20260508063506 | 46 | 327 | 3.5 | 5.2 | 0.00 | 0.00 | 0.00 | 96 | 1002.1 |
| 20260508062907 | 46 | 318 | 1.7 | 3.5 | 0.00 | 0.00 | 0.00 | 97 | 1002.3 |
| 20260508061937 | 46 | 255 | 0.9 | 2.6 | 0.00 | 0.00 | 0.00 | 96 | 1002.3 |
| 20260508061429 | 46 | 217 | 0.9 | 2.6 | 0.00 | 0.00 | 0.00 | 96 | 1002.6 |
| 20260508055932 | 45 | 200 | 1.7 | 3.5 | 0.00 | 0.00 | 0.00 | 96 | 1002.3 |
| 20260508055425 | 45 | 250 | 1.7 | 3.5 | 0.00 | 0.00 | 0.00 | 96 | 1002.3 |
| 20260508054627 | 45 | 242 | 1.7 | 4.3 | 0.00 | 0.00 | 0.00 | 96 | 1002.5 |
| 20260508053908 | 45 | 246 | 2.6 | 4.3 | 0.00 | 0.00 | 0.00 | 96 | 1002.5 |
| 20260508052920 | 45 | 268 | 2.6 | 4.3 | 0.00 | 0.00 | 0.00 | 96 | 1002.3 |
| 20260508052420 | 45 | 267 | 2.6 | 4.3 | 0.00 | 0.00 | 0.00 | 96 | 1002.2 |
| 20260508051906 | 46 | 254 | 2.6 | 4.3 | 0.00 | 0.00 | 0.00 | 96 | 1002.3 |
| 20260508050918 | 46 | 258 | 2.6 | 3.5 | 0.00 | 0.00 | 0.00 | 96 | 1002.2 |
| 20260508050409 | 46 | 261 | 0.9 | 2.6 | 0.00 | 0.00 | 0.00 | 96 | 1002.3 |
| 20260508045419 | 45 | 181 | 0.0 | 2.6 | 0.00 | 0.00 | 0.00 | 96 | 1002.3 |
| 20260508044421 | 45 | 181 | 1.7 | 2.6 | 0.00 | 0.00 | 0.00 | 96 | 1002.1 |
| 20260508043905 | 45 | 281 | 0.9 | 4.3 | 0.00 | 0.00 | 0.00 | 96 | 1002.5 |
| 20260508042929 | 46 | 277 | 2.6 | 5.2 | 0.00 | 0.00 | 0.00 | 96 | 1002.3 |
| 20260508042412 | 46 | 271 | 3.5 | 5.2 | 0.00 | 0.00 | 0.00 | 96 | 1002.3 |
| 20260508041440 | 46 | 274 | 0.9 | 2.6 | 0.00 | 0.00 | 0.00 | 96 | 1002.3 |
| 20260508040912 | 46 | 274 | 0.9 | 3.5 | 0.00 | 0.00 | 0.00 | 96 | 1002.4 |
| 20260508035921 | 47 | 244 | 1.7 | 3.5 | 0.00 | 0.00 | 0.00 | 96 | 1002.4 |
| 20260508035403 | 46 | 256 | 0.9 | 4.3 | 0.00 | 0.00 | 0.00 | 96 | 1002.3 |
| 20260508034414 | 47 | 270 | 1.7 | 3.5 | 0.00 | 0.00 | 0.00 | 96 | 1002.3 |
| 20260508033429 | 48 | 267 | 1.7 | 3.5 | 0.00 | 0.00 | 0.00 | 96 | 1002.4 |
| 20260508032435 | 49 | 217 | 1.7 | 3.5 | 0.00 | 0.00 | 0.00 | 96 | 1002.4 |
| 20260508031440 | 48 | 222 | 1.7 | 4.3 | 0.00 | 0.00 | 0.00 | 96 | 1002.5 |
| 20260508030931 | 47 | 243 | 2.6 | 4.3 | 0.00 | 0.00 | 0.00 | 96 | 1002.5 |
| 20260508030420 | 46 | 225 | 1.7 | 3.5 | 0.00 | 0.00 | 0.00 | 96 | 1002.7 |
| 20260508025437 | 47 | 232 | 1.7 | 4.3 | 0.00 | 0.00 | 0.00 | 96 | 1002.7 |
| 20260508024928 | 46 | 247 | 1.7 | 3.5 | 0.00 | 0.00 | 0.00 | 96 | 1002.6 |
| 20260508023936 | 46 | 249 | 1.7 | 5.2 | 0.00 | 0.00 | 0.00 | 96 | 1002.5 |
| 20260508022939 | 47 | 293 | 4.3 | 7.0 | 0.00 | 0.00 | 0.00 | 96 | 1002.4 |
| 20260508022419 | 47 | 294 | 5.2 | 7.0 | 0.00 | 0.00 | 0.00 | 96 | 1002.6 |
| 20260508021429 | 49 | 298 | 0.9 | 2.6 | 0.00 | 0.00 | 0.00 | 96 | 1002.5 |
| 20260508020408 | 50 | 187 | 1.7 | 2.6 | 0.00 | 0.00 | 0.00 | 96 | 1002.5 |
| 20260508015445 | 50 | 182 | 1.7 | 3.5 | 0.00 | 0.00 | 0.00 | 96 | 1002.5 |
| 20260508014458 | 50 | 188 | 1.7 | 2.6 | 0.00 | 0.00 | 0.00 | 96 | 1002.5 |
| 20260508013443 | 50 | 154 | 1.7 | 3.5 | 0.00 | 0.00 | 0.00 | 96 | 1002.3 |
| 20260508012929 | 50 | 176 | 1.7 | 3.5 | 0.00 | 0.00 | 0.00 | 96 | 1002.6 |
| 20260508011948 | 50 | 188 | 1.7 | 3.5 | 0.00 | 0.00 | 0.00 | 96 | 1002.8 |
| 20260508011414 | 50 | 199 | 2.6 | 3.5 | 0.00 | 0.00 | 0.00 | 96 | 1002.8 |
| 20260508010427 | 50 | 178 | 1.7 | 3.5 | 0.00 | 0.00 | 0.00 | 96 | 1002.6 |
| 20260508005449 | 50 | 155 | 0.9 | 2.6 | 0.00 | 0.00 | 0.00 | 96 | 1002.3 |
| 20260508004503 | 50 | 156 | 0.9 | 2.6 | 0.00 | 0.00 | 0.00 | 96 | 1002.2 |
| 20260508003918 | 50 | 156 | 0.0 | 3.5 | 0.00 | 0.00 | 0.00 | 96 | 1002.3 |
| 20260508002943 | 50 | 167 | 1.7 | 2.6 | 0.00 | 0.00 | 0.00 | 96 | 1002.3 |
| 20260508002437 | 50 | 158 | 0.9 | 2.6 | 0.00 | 0.00 | 0.00 | 96 | 1002.4 |
| 20260508001927 | 50 | 159 | 0.9 | 2.6 | 0.00 | 0.00 | 0.00 | 96 | 1002.3 |
| 20260508000934 | 50 | 168 | 0.9 | 2.6 | 0.00 | 0.00 | 0.00 | 96 | 1002.4 |
| 20260507235926 | 49 | 168 | 0.9 | 2.6 | 0.00 | 0.00 | 0.00 | 96 | 1002.5 |
| 20260507235423 | 50 | 168 | 0.9 | 2.6 | 0.00 | 0.00 | 0.00 | 95 | 1002.4 |
| 20260507234433 | 50 | 168 | 0.9 | 2.6 | 0.00 | 0.00 | 0.00 | 95 | 1002.3 |
| 20260507233931 | 50 | 166 | 0.0 | 2.6 | 0.00 | 0.00 | 0.00 | 95 | 1002.3 |
| 20260507232943 | 49 | 167 | 1.7 | 2.6 | 0.00 | 0.00 | 0.00 | 95 | 1002.4 |
| 20260507232434 | 49 | 167 | 0.9 | 2.6 | 0.00 | 0.00 | 0.00 | 95 | 1002.1 |
| 20260507231442 | 49 | 168 | 0.9 | 2.6 | 0.00 | 0.00 | 0.00 | 95 | 1002.2 |
| 20260507230932 | 49 | 255 | 0.9 | 2.6 | 0.00 | 0.00 | 0.00 | 95 | 1002.3 |
| 20260507225928 | 49 | 256 | 0.0 | 1.7 | 0.00 | 0.00 | 0.00 | 95 | 1002.1 |
| 20260507225428 | 49 | 256 | 0.0 | 0.0 | 0.00 | 0.00 | 0.00 | 95 | 1002.2 |
| 20260507224452 | 49 | 250 | 0.0 | 1.7 | 0.00 | 0.00 | 0.00 | 95 | 1002.1 |
| 20260507223436 | 49 | 250 | 0.9 | 2.6 | 0.00 | 0.00 | 0.00 | 95 | 1002.2 |
| 20260507222444 | 0 | 0.0 | 0.0 | 0.00 | 0.00 | 0.00 | 1002.0 | ||
| 20260507221457 | 0 | 0.0 | 0.0 | 0.00 | 0.00 | 0.00 | 1002.1 | ||
| 20260507220923 | 0 | 0.0 | 0.0 | 0.00 | 0.00 | 0.00 | 1002.1 | ||
| 20260507220001 | 0 | 0.0 | 0.0 | 0.00 | 0.00 | 0.00 | 1002.3 | ||
| 20260507214944 | 0 | 0.0 | 0.0 | 0.00 | 0.00 | 0.00 | 1002.2 | ||
| 20260507213958 | 0 | 0.0 | 0.0 | 0.00 | 0.00 | 0.00 | 1002.3 | ||
| 20260507213432 | 48 | 207 | 4.3 | 7.0 | 0.00 | 0.00 | 0.00 | 93 | 1002.1 |
| 20260507212434 | 48 | 212 | 4.3 | 7.0 | 0.00 | 0.00 | 0.00 | 93 | 1001.9 |
| 20260507211459 | 48 | 212 | 3.5 | 7.0 | 0.00 | 0.00 | 0.00 | 93 | 1001.8 |
| 20260507210443 | 48 | 197 | 4.3 | 8.7 | 0.00 | 0.00 | 0.00 | 92 | 1001.8 |
| 20260507205452 | 49 | 277 | 6.1 | 11.3 | 0.00 | 0.00 | 0.00 | 92 | 1001.9 |
| 20260507203948 | 51 | 304 | 10.4 | 19.1 | 0.00 | 0.00 | 0.00 | 90 | 1001.3 |
| 20260507202956 | 58 | 154 | 9.6 | 15.6 | 0.00 | 0.00 | 0.00 | 90 | 1000.8 |
| 20260507202001 | 59 | 154 | 9.6 | 13.0 | 0.00 | 0.00 | 0.00 | 91 | 1000.7 |
| 20260507201005 | 58 | 142 | 8.7 | 16.5 | 0.00 | 0.00 | 0.00 | 92 | 1000.5 |
| 20260507195943 | 57 | 153 | 9.6 | 13.9 | 0.00 | 0.00 | 0.00 | 94 | 1000.6 |
| 20260507194943 | 53 | 236 | 9.6 | 13.9 | 0.00 | 0.00 | 0.00 | 93 | 1001.1 |
| 20260507193940 | 56 | 137 | 9.6 | 14.8 | 0.00 | 0.00 | 0.00 | 94 | 1000.7 |
| 20260507192956 | 55 | 191 | 8.7 | 13.0 | 0.00 | 0.00 | 0.00 | 94 | 1000.4 |
| 20260507191955 | 55 | 140 | 10.4 | 14.8 | 0.00 | 0.00 | 0.00 | 94 | 1000.4 |
| 20260507190503 | 55 | 121 | 16.5 | 24.3 | 0.00 | 0.00 | 0.00 | 94 | 998.7 |
| 20260507185700 | 61 | 143 | 13.9 | 23.5 | 0.00 | 0.00 | 0.00 | 81 | 1003.2 |